Regional Weather Roundup
Issued by NWS

Home | Current Version | Previous Version | Graphics & Text | Print | Product List | Glossary On
Versions: 1 2 3 4 5 6 7 8 9 10 11 12 13 14 15 16 17 18 19 20 21 22 23 24 25 26 27 28 29 30 31 32 33 34 35 36 37 38 39 40 41 42 43 44 45 46 47 48 49 50
000
ASUS43 KMPX 100701
RWRMN
WEATHER ROUNDUP FOR MINNESOTA
NATIONAL WEATHER SERVICE TWIN CITIES/CHANHASSEN MN
100 AM CST WED FEB 10 2016


NOTE: "FAIR" INDICATES FEW OR NO CLOUDS BELOW 12,000 FEET WITH NO
SIGNIFICANT WEATHER AND/OR OBSTRUCTIONS TO VISIBILITY. N/A MEANS
CURRENT SKY AND/OR WEATHER CONDITIONS ARE NOT AVAILABLE.

MNZ060>063-068>070-100800-
   Twin Cities Metro

CITY           SKY/WX    TMP DP  RH WIND       PRES   REMARKS
TWIN CITIES    PTCLDY     7  -4  60 N12       30.15S WCI  -8
ST PAUL        CLOUDY     7  -4  60 NW9       30.16F WCI  -7
CRYSTAL        PTCLDY     6  -4  63 N5        30.13F WCI  -3
BLAINE         CLOUDY     7  -2  66 N7        30.13F WCI  -5
LAKEVILLE      CLOUDY     5  -2  72 N7        30.13S WCI  -7
EDEN PRAIRIE   CLOUDY     6  -5  60 N6        30.13F WCI  -4
SOUTH ST PAUL  CLOUDY     8  -3  60 N9        30.15S WCI  -6
LAKE ELMO      FAIR       5  -4  66 NW3       30.14S
$$
MNZ001>005-007-008-013>017-022>024-027-028-100800-
   Northwest Minnesota

CITY           SKY/WX    TMP DP  RH WIND       PRES   REMARKS
BEMIDJI        CLOUDY    -9 -13  83 CALM      30.12S
HALLOCK        PTCLDY    -2  -9  71 CALM      30.19F
ROSEAU         PTCLDY   -11 -17  77 CALM      30.18S
WARROAD        CLOUDY    -8 -11  84 N5        30.17F WCI -19
THIEF RVR FALL CLOUDY    -2  -8  78 CALM      30.18S
CROOKSTON      CLOUDY     1  -4  78 NE5       30.20F WCI  -8
FOSSTON          N/A    -11 -17  77 CALM      30.15S
DETROIT LAKES  CLOUDY     0  -4  85 CALM      30.13F
MOORHEAD       CLOUDY     3  -2  78 NE3       30.18F
PARK RAPIDS    CLOUDY    -6 -11  79 CALM      30.09F
MAHNOMEN       FAIR      -4  -8  84 CALM      30.14F
$$
MNZ006-009>011-018-025>026-100800-
   North Central Minnesota

CITY           SKY/WX    TMP DP  RH WIND       PRES   REMARKS
BAUDETTE       PTCLDY   -13 -19  75 N3        30.14F
FLAG ISLAND    PTCLDY   -11 -15  84 CALM      30.17F
INTL FALLS     CLOUDY   -10 -15  78 N5        30.13S HAZE    WCI -22
WASKISH        CLOUDY   -15 -18  84 CALM      30.14F
LONGVILLE      CLOUDY    -9 -11  92 CALM      30.11F
GRAND RAPIDS   PTCLDY    -6 -13  71 N7        30.09S WCI -20
CRANE LAKE     CLOUDY   -15 -18  84 CALM      30.13F
ORR            CLOUDY   -13 -18  77 CALM      30.07R
COOK           CLOUDY    -9 -13  84 CALM      30.09R
WALKER         FAIR      -6 -10  85 CALM      30.12F
$$
MNZ012-019>021-037-100800-
   Northeast Minnesota

CITY           SKY/WX    TMP DP  RH WIND       PRES   REMARKS
DULUTH         PTCLDY    -4  -9  79 NW8       30.03F WCI -19
ELY            CLOUDY    -4  -9  77 N5        30.03F WCI -15
HIBBING        CLOUDY   -13 -16  86 NW7       30.08F WCI -29
EVELETH        CLOUDY    -2  -8  78 NW5       30.07F HAZE    WCI -12
DULUTH HARBOR  CLOUDY     3  -2  78 NW8       30.14F WCI -10
TWO HARBORS    CLOUDY    -2  -9  71 CALM      30.05F
SILVER BAY     CLOUDY    -6 -11  77 CALM      30.04F
G MARAIS ARPRT CLOUDY    -8 -15  71 NW12G17   29.94S WCI -27
$$
MNZ029>031-032-039>041-046>048-054>057-064-100800-
   West Central Minnesota

CITY           SKY/WX    TMP DP  RH WIND       PRES   REMARKS
FERGUS FALLS   CLOUDY     3   0  85 CALM      30.18F
WHEATON        CLOUDY    10   3  72 N3        30.18F
MORRIS         CLOUDY     9   1  72 NE5       30.14F WCI   0
ALEXANDRIA     CLOUDY     2  -3  80 N7        30.12F WCI -11
ELBOW LAKE     FAIR       4   0  80 E3        30.14F
WADENA         CLOUDY    -4  -8  84 W3        30.12F
GLENWOOD       CLOUDY     1  -2  85 N5        30.13F WCI  -8
APPLETON       CLOUDY    12   3  67 NE5       30.16F WCI   4
BENSON         CLOUDY     9   1  72 CALM      30.16F
ORTONVILLE     CLOUDY    12   3  67 N6        30.15F WCI   3
MADISON        CLOUDY    14   7  73 N8        30.16F WCI   3
WILLMAR        FAIR       7   1  78 N7        30.16S WCI  -5
$$
MNZ033>034-036-042>043-049>051-058-059-100800-
   Central Minnesota

CITY           SKY/WX    TMP DP  RH WIND       PRES   REMARKS
ST CLOUD       CLOUDY     3  -4  72 N5        30.13F WCI  -6
SAUK CENTRE    FAIR       0  -3  85 NW6       30.13F WCI -11
PAYNESVILLE    PTCLDY     3  -2  79 N6        30.14F WCI  -8
AITKIN         CLOUDY    -2 -11  65 CALM      30.10F
PINE RIVER     CLOUDY    -9 -13  84 CALM      30.14F
BRAINERD       CLOUDY    -4  -9  79 CALM      30.12F
STAPLES        CLOUDY    -6  -9  84 CALM      30.12F
LONG PRAIRIE   FAIR       0  -6  78 NW5       30.14S WCI -10
LITTLE FALLS   CLOUDY     1  -6  71 CALM      30.13F
LITCHFIELD     CLOUDY     3   0  85 N5        30.14F WCI  -6
BUFFALO        PTCLDY     6  -4  63 N7        30.15F WCI  -6
MAPLE LAKE     PTCLDY     6  -1  73 N7        30.15F WCI  -5
$$
MNZ037-044-045-052-053-100800-
   East Central Minnesota

CITY           SKY/WX    TMP DP  RH WIND       PRES   REMARKS
PRINCETON      CLOUDY     5  -4  66 N7        30.13F WCI  -7
MORA           CLOUDY     1  -6  71 CALM      30.14F
CAMBRIDGE      CLOUDY     7  -6  56 N5        30.12F WCI  -2
RUSH CITY      PTCLDY     3  -4  70 N5        30.13F WCI  -6
MOOSE LAKE     CLOUDY    -2  -8  78 CALM      30.09F
HINCKLEY       FAIR       3  -4  72 NW9       30.12F WCI -11
CLOQUET        CLOUDY    -2  -9  71 NW8       30.06F WCI -17
$$
MNZ071>073-080-081-089-090-097-098-100800-
   Southwest Minnesota

CITY           SKY/WX    TMP DP  RH WIND       PRES   REMARKS
MONTEVIDEO     CLOUDY    12   3  67 NE8       30.18F WCI   1
GRANITE FALLS  CLOUDY    15   9  76 NW6       30.18S WCI   6
CANBY          CLOUDY    17  10  72 N5        30.16F WCI  10
MARSHALL       CLOUDY    14   8  77 N9        30.15S WCI   2
REDWOOD FALLS  CLOUDY    12   3  67 N8        30.16S WCI   0
OLIVIA         CLOUDY    10   3  72 N7        30.16R WCI   0
PIPESTONE      CLOUDY    18   9  68 E5        30.09S WCI  11
WINDOM         CLOUDY    14   9  79 N7        30.11F WCI   4
WORTHINGTON    CLOUDY    16   9  73 N8        30.11S WCI   5
JACKSON        CLOUDY    16   9  73 VRB6      30.11F WCI   7
TRACY          CLOUDY    15  10  81 N7        30.14R WCI   5
SLAYTON        CLOUDY    14  10  83 NW3       30.11S
$$
MNZ065>067-074>077-082>085-091>093-100800-
   South Central Minnesota

CITY           SKY/WX    TMP DP  RH WIND       PRES   REMARKS
MANKATO        CLOUDY     7  -2  66 NW7       30.13S WCI  -5
NEW ULM        CLOUDY     7   0  72 NW7       30.15S WCI  -5
ST JAMES       CLOUDY     7   3  85 NW6       30.15F WCI  -3
FAIRMONT       CLOUDY    10   1  67 NW10      30.12S WCI  -3
GLENCOE        CLOUDY     6   2  81 NW5       30.14F WCI  -2
FARIBAULT        N/A      3  -2  78 NW5       30.12S WCI  -6
OWATONNA       CLOUDY     1  -6  71 NW5       30.11S WCI  -8
WASECA         PTCLDY     3  -2  78 NW7       30.13S WCI  -9
ALBERT LEA     CLOUDY     7   1  78 NW7       30.10S WCI  -5
$$
MNZ078>079-086>088-094>096-100800-
   Southeast Minnesota

CITY           SKY/WX    TMP DP  RH WIND       PRES   REMARKS
ROCHESTER      CLOUDY     2  -6  69 NW12      30.08S WCI -15
RED WING       PTCLDY     5  -6  61 W5        30.13S WCI  -4
STANTON        PTCLDY     6  -4  62 N7        30.13R WCI  -6
DODGE CENTER   CLOUDY     1  -4  78 NW7       30.08S WCI -11
WINONA         PTCLDY    10   0  61 NW5       30.12S WCI   2
AUSTIN         CLOUDY     3   0  85 NW6       30.09S WCI  -8
PRESTON        CLOUDY     2  -7  67 NW9       30.06F WCI -13
$$
ABBREVIATIONS USED IN REMARKS
   TC - TEMPERATURES IN CELSIUS
  WCI - WIND CHILL INDEX
   HX - HEAT INDEX
  VSB - VISIBILITY
$$



USA.gov is the U.S. government's official web portal to all federal, state and local government web resources and services.